Find RAPTOR 3

NORAD ID: 58958 Int'l Des: 2024-028 Owner: SDA Country: US operational
LEOCIRCULAR

Aktuelle Ansicht

3D-Globus wird geladen...

Über RAPTOR 3

Beschreibung wird geladen...

Nächste Überflüge

Passes for default location (London). Set your location on the main map for personalized predictions.

Höhenverlauf

Loading altitude history...

Zweizeiliger Elementsatz

1 58958U 24028D 26145.36398324 -.00000042 00000-0 40289-4 0 9991
2 58958 39.9890 148.2220 0010694 126.1263 234.0475 13.70485338113939
Epoch: 25. Mai 2026 • Age: 21 hours

Aktueller Status

Höhe 998.1 km
Geschwindigkeit 7.36 km/s
Subsatellitenpunkt 20.52°N, 161.58°W
Startdatum 14. Feb. 2024
Alter 2.2 years
Typ other

Technische Details

Klassifizierung Payload
Masse 1000.00 kg
Trockenmasse 1000.00 kg
Gesamtmasse 1000.00 kg
Länge 1.00 m
Durchmesser 0.60 m
Spannweite 2.00 m
Form Box + panels
Hersteller HARRL3
Bus-Typ TPL0-L3H
Phasenstatus In Orbit
Besitzer/Staat SDA/US

Most Searched